Location: Azul
(36.7830°S, 59.8500°W)
Time: 00:25:31
(UTC-03:00)

NOAA 15 - Pass Details

Date: 24 October 2021
Orbit: 797 x 813 km, 98.7° (Epoch: 30 November)

Event Time Altitude Azimuth Distance (km) Brightness Sun altitude
Rises 21:22:34 0° 176° (S) 3,341 8.2 -22.0°
Reaches altitude 10° 21:25:02 10° 183° (S) 2,405 7.6 -22.4°
Maximum altitude 21:29:57 39° 250° (WSW) 1,191 5.9 -23.2°
Drops below altitude 10° 21:34:49 10° 318° (NW) 2,386 7.1 -24.0°
Sets 21:37:16 0° 325° (NW) 3,311 7.8 -24.4°
